DW5499 Weather Reports


time (UTC)temp
F
wind
direction
speed
knots
gust
knots
rain 1hr
in
rain 24hr
in
rain mn
in
humidity
%
barometer
mb
20260902070009 81 184 0.9 4.3 0.00 0.00 0.00 59 1012.3
20260902064507 81 164 0.9 3.5 0.00 0.00 0.00 60 1012.5
20260902063012 81 158 0.9 2.6 0.00 0.00 0.00 61 1012.5
20260902061504 82 146 0.9 2.6 0.00 0.00 0.00 60 1012.6
20260902060127 83 159 0.0 3.5 0.00 0.00 0.00 58 1012.5
20260902054559 83 155 0.9 4.3 0.00 0.00 0.00 56 1012.5
20260902053058 83 158 1.7 3.5 0.00 0.00 0.00 56 1012.4
20260902051556 83 179 1.7 4.3 0.00 0.00 0.00 55 1012.5
20260902050054 83 179 2.6 5.2 0.00 0.00 0.00 55 1012.4
20260902044554 83 170 1.7 5.2 0.00 0.00 0.00 55 1012.3
20260902043055 84 185 0.9 5.2 0.00 0.00 0.00 55 1012.2
20260902041607 85 189 2.6 5.2 0.00 0.00 0.00 54 1012.2
20260902040053 86 168 2.6 5.2 0.00 0.00 0.00 53 1012.3
20260902034554 86 156 1.7 4.3 0.00 0.00 0.00 53 1012.3
20260902033056 86 203 1.7 4.3 0.00 0.00 0.00 53 1012.2
20260902031551 88 205 2.6 5.2 0.00 0.00 0.00 50 1012.1
20260902030051 89 193 2.6 5.2 0.00 0.00 0.00 49 1011.9
20260902024550 89 147 1.7 5.2 0.00 0.00 0.00 49 1011.8
20260902023050 90 176 2.6 6.1 0.00 0.00 0.00 49 1011.8
20260902021552 90 167 3.5 7.0 0.00 0.00 0.00 48 1011.6
20260902020049 91 170 1.7 5.2 0.00 0.00 0.00 48 1011.6
20260902014552 92 191 0.9 3.5 0.00 0.00 0.00 48 1011.4
20260902013048 92 166 1.7 5.2 0.00 0.00 0.00 46 1011.3
20260902011547 92 182 2.6 5.2 0.00 0.00 0.00 46 1011.2
20260902010047 93 176 0.9 4.3 0.00 0.00 0.00 45 1011.1
20260902004547 94 176 0.9 5.2 0.00 0.00 0.00 43 1011.3
20260902003053 96 158 1.7 6.1 0.00 0.00 0.00 42 1011.2
20260902001544 97 185 2.6 5.2 0.00 0.00 0.00 40 1011.4
20260902000056 98 117 1.7 6.1 0.00 0.00 0.00 39 1011.5
20260901234542 98 149 1.7 5.2 0.00 0.00 0.00 38 1011.5
20260901233042 99 137 1.7 5.2 0.00 0.00 0.00 37 1011.5
20260901231548 99 197 2.6 8.7 0.00 0.00 0.00 37 1011.5
20260901230042 99 189 4.3 9.6 0.00 0.00 0.00 36 1011.6
20260901224541 99 189 4.3 10.4 0.00 0.00 0.00 34 1011.6
20260901223040 99 218 5.2 12.2 0.00 0.00 0.00 34 1011.6
20260901221540 100 208 3.5 12.2 0.00 0.00 0.00 34 1011.6
20260901220106 100 205 4.3 13.0 0.00 0.00 0.00 34 1011.6
20260901214538 99 155 6.1 15.6 0.00 0.00 0.00 35 1011.6
20260901213101 100 201 7.8 13.9 0.00 0.00 0.00 34 1011.8
20260901211535 100 165 6.1 14.8 0.00 0.00 0.00 34 1012.0
20260901210035 100 182 8.7 15.6 0.00 0.00 0.00 32 1012.1
20260901204537 100 133 7.0 14.8 0.00 0.00 0.00 33 1012.3
20260901203047 100 184 4.3 13.0 0.00 0.00 0.00 34 1012.4
20260901201528 100 181 6.1 12.2 0.00 0.00 0.00 34 1012.6
20260901200031 99 205 7.0 14.8 0.00 0.00 0.00 36 1012.7
20260901194521 98 195 6.1 14.8 0.00 0.00 0.00 38 1012.9
20260901193022 97 164 7.8 17.4 0.00 0.00 0.00 38 1013.0
20260901191520 98 174 4.3 13.9 0.00 0.00 0.00 38 1013.1
20260901190019 97 146 5.2 10.4 0.00 0.00 0.00 40 1013.2
20260901184526 98 214 7.0 14.8 0.00 0.00 0.00 40 1013.3
20260901183015 97 220 3.5 9.6 0.00 0.00 0.00 43 1013.5
20260901181512 95 207 6.1 13.9 0.00 0.00 0.00 44 1013.7
20260901180011 94 197 7.0 13.0 0.00 0.00 0.00 45 1014.0
20260901174510 94 187 8.7 15.6 0.00 0.00 0.00 46 1014.1
20260901173008 94 168 6.1 13.0 0.00 0.00 0.00 46 1014.3
20260901171504 92 197 6.1 13.0 0.00 0.00 0.00 48 1014.4
20260901170003 91 212 8.7 14.8 0.00 0.00 0.00 49 1014.5
20260901164620 91 206 7.0 13.0 0.00 0.00 0.00 50 1014.6
20260901163058 90 150 7.0 14.8 0.00 0.00 0.00 51 1014.6
20260901161557 89 209 6.1 13.9 0.00 0.00 0.00 52 1014.6
20260901160101 89 247 4.3 8.7 0.00 0.00 0.00 51 1014.7
20260901154553 88 160 2.6 9.6 0.00 0.00 0.00 53 1014.7
20260901153051 87 129 7.8 13.9 0.00 0.00 0.00 53 1014.6
20260901151548 86 193 5.2 12.2 0.00 0.00 0.00 54 1014.7
20260901150048 86 164 6.1 13.0 0.00 0.00 0.00 54 1014.6
20260901144547 86 239 2.6 7.8 0.00 0.00 0.00 56 1014.7
20260901143047 85 175 1.7 5.2 0.00 0.00 0.00 58 1014.8
20260901141546 83 155 2.6 6.1 0.00 0.00 0.00 59 1015.0
20260901140052 81 142 1.7 5.2 0.00 0.00 0.00 62 1015.1
20260901134559 81 137 0.9 4.3 0.00 0.00 0.00 62 1015.1
20260901133049 80 159 0.0 7.8 0.00 0.00 0.00 64 1015.1
20260901131544 79 143 0.0 4.3 0.00 0.00 0.00 65 1015.0
20260901130045 78 133 0.0 1.7 0.00 0.00 0.00 67 1015.0
20260901124543 77 107 0.0 1.7 0.00 0.00 0.00 68 1014.8
20260901123038 76 70 0.9 2.6 0.00 0.00 0.00 69 1014.7
20260901121537 76 97 0.0 3.5 0.00 0.00 0.00 69 1014.6
20260901120050 76 186 0.9 3.5 0.00 0.00 0.00 66 1014.5
20260901114533 77 190 1.7 6.1 0.00 0.00 0.00 64 1014.4
20260901113035 77 164 0.9 6.1 0.00 0.00 0.00 64 1014.4
20260901111533 77 166 2.6 6.1 0.00 0.00 0.00 64 1014.2
20260901110040 77 166 1.7 6.1 0.00 0.00 0.00 63 1014.1
20260901104529 78 176 1.7 4.3 0.00 0.00 0.00 63 1013.9
20260901103030 78 182 2.6 6.1 0.00 0.00 0.00 63 1013.9
20260901101530 76 203 2.6 6.1 0.00 0.00 0.00 68 1013.9
20260901100026 73 110 1.7 4.3 0.00 0.00 0.00 78 1013.9
20260901094528 73 6 0.0 1.7 0.00 0.00 0.00 78 1013.4
20260901093021 74 103 0.0 1.7 0.00 0.00 0.00 77 1013.3
20260901091519 75 78 0.0 0.9 0.00 0.00 0.00 75 1013.3
20260901090014 77 78 0.0 1.7 0.00 0.00 0.00 71 1013.2
20260901084511 79 122 0.0 1.7 0.00 0.00 0.00 66 1013.1
20260901083011 79 158 0.9 2.6 0.00 0.00 0.00 62 1013.0
20260901081511 79 176 0.0 2.6 0.00 0.00 0.00 62 1012.8
20260901080010 79 152 0.0 2.6 0.00 0.00 0.00 63 1012.9
20260901074507 79 141 0.9 2.6 0.00 0.00 0.00 63 1012.9
20260901073003 80 152 0.0 1.7 0.00 0.00 0.00 62 1013.1
20260901071559 81 158 0.0 1.7 0.00 0.00 0.00 59 1013.2